DW5274 Weather Reports


Display with metric or nautical units.
time (UTC)temp
F
wind
direction
speed
MPH
gust
MPH
rain 1hr
in
rain 24hr
in
rain mn
in
humidity
%
barometer
mb
20260901041520 71 26 0.0 0.0 0.00 0.00 0.00 34 1005.6
20260901040117 72 26 0.0 0.0 0.00 0.00 0.00 32 1005.7
20260901034609 73 26 0.0 0.0 0.00 0.00 0.00 32 1005.8
20260901033054 74 26 0.0 0.0 0.00 0.00 0.00 29 1005.7
20260901031537 76 26 0.0 0.0 0.00 0.00 0.00 29 1005.6
20260901030035 77 26 0.0 0.0 0.00 0.00 0.00 27 1005.7
20260901024518 79 26 0.0 0.0 0.00 0.00 0.00 24 1005.5
20260901023024 81 26 0.0 0.0 0.00 0.00 0.00 24 1005.6
20260901021558 83 26 0.0 0.0 0.00 0.00 0.00 22 1005.7
20260901020057 85 26 0.0 0.0 0.00 0.00 0.00 21 1005.8
20260901014550 86 218 0.0 0.0 0.00 0.00 0.00 23 1006.0
20260901013037 86 218 0.0 0.0 0.00 0.00 0.00 23 1006.2
20260901011524 86 218 0.0 0.0 0.00 0.00 0.00 19 1006.1
20260901010016 87 218 0.0 0.0 0.00 0.00 0.00 18 1006.4
20260901004606 87 218 0.0 0.0 0.00 0.00 0.00 18 1006.4
20260901003058 88 217 0.0 0.0 0.00 0.00 0.00 18 1006.6
20260901001537 88 217 0.0 0.0 0.00 0.00 0.00 17 1007.0
20260901000034 88 217 0.0 0.0 0.00 0.00 0.00 19 1007.3
20260831234516 89 217 0.0 0.0 0.00 0.00 0.00 18 1007.5
20260831233014 89 217 0.0 0.0 0.00 0.00 0.00 13 1007.6
20260831231557 89 211 0.0 0.0 0.00 0.00 0.00 13 1007.8
20260831230059 89 211 0.0 0.0 0.00 0.00 0.00 15 1008.0
20260831224531 88 211 0.0 0.0 0.00 0.00 0.00 14 1008.3
20260831223029 88 211 0.0 0.0 0.00 0.00 0.00 15 1008.6
20260831221511 88 211 0.0 0.0 0.00 0.00 0.00 14 1009.0
20260831220008 87 211 0.0 0.0 0.00 0.00 0.00 16 1009.5
20260831214547 87 211 0.0 0.0 0.00 0.00 0.00 17 1009.8
20260831213044 86 211 0.0 0.0 0.00 0.00 0.00 15 1010.0
20260831211524 86 206 0.0 0.0 0.00 0.00 0.00 18 1010.3
20260831210023 85 205 0.0 0.0 0.00 0.00 0.00 15 1010.6
20260831204601 85 205 0.0 0.0 0.00 0.00 0.00 17 1010.9
20260831203101 84 205 0.0 0.0 0.00 0.00 0.00 17 1011.2
20260831201536 84 205 0.0 0.0 0.00 0.00 0.00 19 1011.6
20260831200041 83 205 0.0 0.0 0.00 0.00 0.00 18 1011.8
20260831194511 81 177 0.0 0.0 0.00 0.00 0.00 19 1012.1
20260831193012 80 177 0.0 0.0 0.00 0.00 0.00 20 1012.4
20260831191549 79 177 0.0 0.0 0.00 0.00 0.00 20 1012.6
20260831190105 79 177 0.0 0.0 0.00 0.00 0.00 23 1012.9
20260831184527 80 177 0.0 0.0 0.00 0.00 0.00 21 1013.3
20260831183022 77 177 0.0 0.0 0.00 0.00 0.00 24 1013.5
20260831181502 76 177 0.0 0.0 0.00 0.00 0.00 22 1013.8
20260831174545 73 177 0.0 0.0 0.00 0.00 0.00 26 1014.2
20260831173039 73 180 0.0 0.0 0.00 0.00 0.00 23 1014.3
20260831171518 72 180 0.0 0.0 0.00 0.00 0.00 26 1014.3
20260831170015 70 180 0.0 0.0 0.00 0.00 0.00 24 1014.5
20260831164601 69 180 0.0 0.0 0.00 0.00 0.00 29 1014.6
20260831163052 66 180 0.0 0.0 0.00 0.00 0.00 29 1014.8
20260831161530 64 180 0.0 0.0 0.00 0.00 0.00 29 1014.9
20260831160028 63 177 0.0 0.0 0.00 0.00 0.00 33 1015.0
20260831154511 61 189 0.0 0.0 0.00 0.00 0.00 34 1015.2
20260831153010 59 190 0.0 0.0 0.00 0.00 0.00 35 1015.2
20260831151556 57 189 0.0 0.0 0.00 0.00 0.00 37 1015.2
20260831150051 55 186 0.0 0.0 0.00 0.00 0.00 37 1015.2
20260831144535 54 189 0.0 0.0 0.00 0.00 0.00 40 1015.1
20260831143032 51 27 0.0 0.0 0.00 0.00 0.00 46 1014.8
20260831141511 49 27 0.0 0.0 0.00 0.00 0.00 48 1014.8
20260831140011 48 27 0.0 0.0 0.00 0.00 0.00 49 1014.6
20260831134556 47 27 0.0 0.0 0.00 0.00 0.00 50 1014.6
20260831133051 46 27 0.0 0.0 0.00 0.00 0.00 52 1014.5
20260831131532 46 27 0.0 0.0 0.00 0.00 0.00 52 1014.4
20260831130031 47 27 0.0 0.0 0.00 0.00 0.00 52 1014.3
20260831124512 47 27 0.0 0.0 0.00 0.00 0.00 55 1014.4
20260831123010 47 27 0.0 0.0 0.00 0.00 0.00 56 1014.2
20260831121551 47 27 0.0 0.0 0.00 0.00 0.00 56 1014.0
20260831120050 48 27 0.0 0.0 0.00 0.00 0.00 54 1014.0
20260831114537 48 27 0.0 0.0 0.00 0.00 0.00 53 1014.1
20260831113035 48 27 0.0 0.0 0.00 0.00 0.00 52 1014.0
20260831111546 48 27 0.0 0.0 0.00 0.00 0.00 53 1013.9
20260831110037 49 27 0.0 0.0 0.00 0.00 0.00 54 1013.9
20260831104547 49 27 0.0 0.0 0.00 0.00 0.00 52 1014.0
20260831103031 49 27 0.0 0.0 0.00 0.00 0.00 52 1014.0
20260831101532 50 27 0.0 0.0 0.00 0.00 0.00 51 1013.9
20260831100025 50 27 0.0 0.0 0.00 0.00 0.00 50 1013.8
20260831094505 51 27 0.0 0.0 0.00 0.00 0.00 52 1013.8
20260831093007 51 27 0.0 0.0 0.00 0.00 0.00 51 1013.9
20260831091544 52 27 0.0 0.0 0.00 0.00 0.00 50 1013.6
20260831090043 52 27 0.0 0.0 0.00 0.00 0.00 49 1013.5
20260831084524 53 27 0.0 0.0 0.00 0.00 0.00 47 1013.5
20260831083023 53 27 0.0 0.0 0.00 0.00 0.00 48 1013.6
20260831081505 53 27 0.0 0.0 0.00 0.00 0.00 50 1013.6
20260831080004 54 27 0.0 0.0 0.00 0.00 0.00 51 1013.6
20260831074545 54 27 0.0 0.0 0.00 0.00 0.00 50 1013.5
20260831073044 54 27 0.0 0.0 0.00 0.00 0.00 52 1013.6
20260831071530 55 27 0.0 0.0 0.00 0.00 0.00 54 1013.6
20260831070022 55 27 0.0 0.0 0.00 0.00 0.00 51 1013.6
20260831064505 56 27 0.0 0.0 0.00 0.00 0.00 50 1013.7
20260831063100 56 27 0.0 0.0 0.00 0.00 0.00 50 1013.7
20260831061559 56 27 0.0 0.0 0.00 0.00 0.00 50 1013.6
20260831060045 57 27 0.0 0.0 0.00 0.00 0.00 48 1013.4
20260831054536 58 27 0.0 0.0 0.00 0.00 0.00 46 1013.3
20260831053021 58 27 0.0 0.0 0.00 0.00 0.00 47 1013.4
20260831051513 59 27 0.0 0.0 0.00 0.00 0.00 43 1013.4
20260831050053 60 27 0.0 0.0 0.00 0.00 0.00 45 1013.5
20260831044605 61 27 0.0 0.0 0.00 0.00 0.00 41 1013.5
20260831043031 61 27 0.0 0.0 0.00 0.00 0.00 37 1013.4